TimeCST,TemperatureF,Dew PointF,Humidity,Sea Level PressureIn,VisibilityMPH,Wind Direction,Wind SpeedMPH,Gust SpeedMPH,PrecipitationIn,Events,Conditions,WindDirDegrees,DateUTC
12:15 AM,44.6,42.8,93,29.96,10.0,NW,17.3,24.2,0.00,,Mostly Cloudy,310,2013-02-19 06:15:00
12:35 AM,42.8,41.0,93,29.98,9.0,NW,11.5,25.3,0.00,,Partly Cloudy,310,2013-02-19 06:35:00
12:55 AM,42.8,39.2,87,29.99,10.0,NW,16.1,20.7,0.00,,Clear,320,2013-02-19 06:55:00
1:15 AM,42.8,39.2,87,30.00,10.0,NW,11.5,-,0.00,,Clear,320,2013-02-19 07:15:00
1:35 AM,42.8,39.2,87,30.01,9.0,NW,15.0,20.7,0.00,,Clear,320,2013-02-19 07:35:00
1:55 AM,41.0,39.2,93,30.02,9.0,NW,11.5,-,0.00,,Clear,320,2013-02-19 07:55:00
2:15 AM,39.2,39.2,100,30.02,10.0,NW,8.1,-,0.00,,Clear,320,2013-02-19 08:15:00
2:35 AM,39.2,39.2,100,30.03,10.0,NW,8.1,-,0.00,,Clear,320,2013-02-19 08:35:00
2:55 AM,39.2,39.2,100,30.03,8.0,NNW,9.2,-,0.00,,Mostly Cloudy,330,2013-02-19 08:55:00
3:15 AM,39.2,39.2,100,30.04,9.0,NW,8.1,-,0.00,,Mostly Cloudy,310,2013-02-19 09:15:00
3:35 AM,39.2,39.2,100,30.05,9.0,NW,9.2,-,0.00,,Mostly Cloudy,310,2013-02-19 09:35:00
3:55 AM,39.2,39.2,100,30.05,8.0,NW,17.3,20.7,0.00,,Mostly Cloudy,310,2013-02-19 09:55:00
4:15 AM,39.2,37.4,93,30.06,9.0,NW,13.8,20.7,0.00,,Partly Cloudy,310,2013-02-19 10:15:00
4:35 AM,37.4,35.6,93,30.07,10.0,NW,16.1,-,0.00,,Scattered Clouds,320,2013-02-19 10:35:00
4:55 AM,37.4,35.6,93,30.09,10.0,NW,11.5,-,0.00,,Partly Cloudy,320,2013-02-19 10:55:00
5:15 AM,35.6,33.8,93,30.11,10.0,NW,11.5,-,0.00,,Partly Cloudy,310,2013-02-19 11:15:00
5:35 AM,35.6,33.8,93,30.12,10.0,NW,11.5,-,0.00,,Clear,310,2013-02-19 11:35:00
5:55 AM,35.6,33.8,93,30.13,9.0,WNW,11.5,-,0.00,,Clear,300,2013-02-19 11:55:00
6:50 AM,33.8,32.0,93,30.16,10.0,NW,8.1,-,N/A,,Clear,320,2013-02-19 12:50:00
7:50 AM,33.8,32.0,93,30.20,10.0,NW,8.1,-,N/A,,Clear,320,2013-02-19 13:50:00
8:50 AM,35.6,28.4,75,30.23,10.0,NW,9.2,-,N/A,,Partly Cloudy,320,2013-02-19 14:50:00
9:50 AM,37.4,28.4,70,30.24,10.0,NW,6.9,-,N/A,,Partly Cloudy,320,2013-02-19 15:50:00
10:45 AM,39.2,28.4,65,30.25,10.0,West,8.1,17.3,N/A,,Partly Cloudy,270,2013-02-19 16:45:00
11:45 AM,42.8,28.4,57,30.25,10.0,WNW,15.0,20.7,N/A,,Clear,290,2013-02-19 17:45:00
12:55 PM,44.6,28.4,53,30.24,10.0,WNW,12.7,19.6,N/A,,Clear,290,2013-02-19 18:55:00
1:45 PM,46.4,28.4,50,30.24,10.0,WNW,10.4,23.0,N/A,,Clear,300,2013-02-19 19:45:00
2:50 PM,46.4,28.4,50,30.24,10.0,WNW,18.4,24.2,N/A,,Clear,290,2013-02-19 20:50:00
3:50 PM,46.4,26.6,46,30.25,10.0,WNW,9.2,19.6,N/A,,Clear,290,2013-02-19 21:50:00
4:50 PM,44.6,26.6,49,30.25,10.0,WNW,13.8,23.0,N/A,,Clear,300,2013-02-19 22:50:00
6:50 PM,39.2,24.8,56,30.24,10.0,NW,4.6,-,N/A,,Clear,310,2013-02-20 00:50:00
7:50 PM,39.2,24.8,56,30.26,10.0,Calm,Calm,-,N/A,,Clear,0,2013-02-20 01:50:00
8:15 PM,39.2,24.8,56,30.26,9.0,West,4.6,-,0.00,,Clear,280,2013-02-20 02:15:00
8:35 PM,39.2,24.8,56,30.26,10.0,WNW,3.5,-,0.00,,Clear,290,2013-02-20 02:35:00
8:55 PM,39.2,24.8,56,30.26,10.0,Calm,Calm,-,0.00,,Clear,0,2013-02-20 02:55:00
9:15 PM,37.4,26.6,65,30.26,10.0,Calm,Calm,-,0.00,,Clear,0,2013-02-20 03:15:00
9:35 PM,37.4,26.6,65,30.27,9.0,Calm,Calm,-,0.00,,Clear,0,2013-02-20 03:35:00
9:55 PM,35.6,26.6,70,30.27,10.0,Calm,Calm,-,0.00,,Clear,0,2013-02-20 03:55:00
10:15 PM,35.6,26.6,70,30.28,10.0,Calm,Calm,-,0.00,,Clear,0,2013-02-20 04:15:00
10:35 PM,33.8,28.4,81,30.27,8.0,Calm,Calm,-,0.00,,Clear,0,2013-02-20 04:35:00
10:55 PM,33.8,26.6,75,30.26,10.0,NNW,3.5,-,0.00,,Clear,340,2013-02-20 04:55:00
11:15 PM,35.6,24.8,65,30.27,10.0,Calm,Calm,-,0.00,,Clear,0,2013-02-20 05:15:00
11:35 PM,33.8,23.0,65,30.27,10.0,Calm,Calm,-,0.00,,Clear,0,2013-02-20 05:35:00
11:55 PM,33.8,23.0,65,30.28,9.0,Calm,Calm,-,0.00,,Clear,0,2013-02-20 05:55:00